星链-32271 (STARLINK-32271)

导读 | 星芒AI

STARLINK-32271 是 SpaceX 星链计划中的一颗低轨道通信卫星,属于该系列的第 32271 颗发射入轨的卫星。它主要用于提供全球范围内的高速互联网服务,特别是在偏远和网络覆盖不足的地区。该卫星采用先进的推进和通信技术,具备自动避碰功能,以确保在拥挤的近地轨道环境中安全运行。作为星链星座的一部分,STARLINK-32271 有助于提升全球互联网接入的普及率和稳定性。

基本信息
目录编号:
60368
目录名称:
STARLINK-32271
国际标识:
2024-138P
轨道中心:
EARTH
卫星名称:
星链-32271 (STARLINK-32271)
卫星全名:
星链-32271 (STARLINK-32271)
卫星状态:
在轨 (已飞行456 天)
发射日期:
2024-08-04 UTC
国别 :
美国 (US)
星等 :
--
轨道信息
数据来源 国际轨道数据
星历时间: 2025-11-02T17:23:37+0800
1天前
查看轨道信息
半长轴: 6853.287km
偏心率: 0.0001597
轨道倾角: 53.159°
近地点辐角 93.413°
升交点赤经 181.178°
平近点角 266.706°
近地点: 474.057km
远地点: 476.247km
周期: 94.104分钟
每日圈数: 15.302219
详细信息
卫星平台:
Starlink v2.0 mini
运营商:
太空探索技术公司
运营商所在国:
美国
制造商(研发单位):
太空探索技术公司
制造商所在国:
美国
使用方式:
暂无
卫星简介
星链(Starlink)计划是由太空探索技术公司(SpaceX)提出的一个巨型低轨卫星互联网星座项目,计划在2019年至2024年间在太空搭建由约1.2万颗卫星组成的“星链”网络,其中1584颗将部署在地球上空550千米处的近地轨道,并从2020年开始工作。该卫星仍在工作。
2D轨道图
3D轨道图
轨道高度分析图
轨道倾角分析图
轨道综合分析图
查看轨道综合分析图